LPE26X SPZO-SPTU

Flight info

Callsign LPE26X
Flight time N/A
Altitude 23000
Route CEMIL UV10 PDO
Aircraft A20N/M-SDE2E3FGHIRWXY/LB1

Departure

Time 2026-04-23 02:56
Airport Alejandro Velasco Astete International Airport (SPZO)

Arrival

Time N/A
Airport Padre Aldamiz International Airport (SPTU)
Time Latitude Longitude Altitude Speed Heading
2026-04-23 02:07 -13.53778 -71.94415 10816 ft 0 kts 115°
2026-04-23 02:30 -13.53776 -71.94419 10816 ft 2 kts 115°
2026-04-23 02:30 -13.53768 -71.94437 10986 ft 3 kts 115°
2026-04-23 02:30 -13.53765 -71.94443 10648 ft 0 kts 115°
2026-04-23 02:37 -13.53766 -71.94442 10645 ft 0 kts 115°
2026-04-23 02:38 -13.53767 -71.94440 10488 ft 0 kts 115°
2026-04-23 02:39 -13.53766 -71.94441 10489 ft 0 kts 115°
2026-04-23 02:40 -13.53767 -71.94441 10489 ft 0 kts 117°
2026-04-23 02:41 -13.53767 -71.94440 10488 ft 0 kts 122°
2026-04-23 02:41 -13.53768 -71.94440 10488 ft 0 kts 127°
2026-04-23 02:41 -13.53763 -71.94447 10816 ft 0 kts 131°
2026-04-23 02:42 -13.53755 -71.94456 10816 ft 0 kts 137°
2026-04-23 02:43 -13.53757 -71.94454 10816 ft 4 kts 135°
2026-04-23 02:43 -13.53759 -71.94452 10816 ft 3 kts 140°
2026-04-23 02:43 -13.53744 -71.94464 10816 ft 0 kts 144°
2026-04-23 02:45 -13.53747 -71.94460 10816 ft 3 kts 134°
2026-04-23 02:45 -13.53743 -71.94440 10816 ft 4 kts 27°
2026-04-23 02:46 -13.53708 -71.94451 10816 ft 6 kts 336°
2026-04-23 02:46 -13.53675 -71.94462 10816 ft 4 kts 338°
2026-04-23 02:46 -13.53659 -71.94470 10816 ft 0 kts 339°
2026-04-23 02:46 -13.53650 -71.94474 10816 ft 0 kts 337°
2026-04-23 02:47 -13.53648 -71.94474 10816 ft 0 kts 341°
2026-04-23 02:50 -13.53647 -71.94476 10816 ft 3 kts 326°
2026-04-23 02:50 -13.53644 -71.94505 10816 ft 0 kts 255°
2026-04-23 02:50 -13.53644 -71.94532 10816 ft 8 kts 273°
2026-04-23 02:50 -13.53636 -71.94587 10819 ft 8 kts 277°
2026-04-23 02:51 -13.53631 -71.94650 10823 ft 10 kts 275°
2026-04-23 02:51 -13.53624 -71.94726 10827 ft 12 kts 276°
2026-04-23 02:51 -13.53614 -71.94816 10832 ft 13 kts 276°
2026-04-23 02:51 -13.53604 -71.94914 10851 ft 14 kts 276°
2026-04-23 02:52 -13.53595 -71.95010 10849 ft 13 kts 275°
2026-04-23 02:52 -13.53586 -71.95102 10861 ft 13 kts 276°
2026-04-23 02:52 -13.53575 -71.95198 10862 ft 15 kts 277°
2026-04-23 02:52 -13.53563 -71.95314 10863 ft 19 kts 273°
2026-04-23 02:53 -13.53558 -71.95385 10863 ft 2 kts 275°
2026-04-23 02:53 -13.53548 -71.95426 10863 ft 9 kts 290°
2026-04-23 02:53 -13.53487 -71.95439 10865 ft 12 kts 13°
2026-04-23 02:53 -13.53479 -71.95437 10864 ft 0 kts 13°
2026-04-23 02:54 -13.53477 -71.95437 10864 ft 1 kts 13°
2026-04-23 02:54 -13.53462 -71.95433 10864 ft 3 kts 13°
2026-04-23 02:54 -13.53434 -71.95425 10865 ft 3 kts 29°
2026-04-23 02:54 -13.53421 -71.95394 10865 ft 6 kts 82°
2026-04-23 02:55 -13.53426 -71.95284 10864 ft 45 kts 94°
2026-04-23 02:55 -13.53487 -71.94676 10825 ft 124 kts 98°
2026-04-23 02:55 -13.53598 -71.93580 10835 ft 179 kts 95°
2026-04-23 02:55 -13.53734 -71.92215 11209 ft 207 kts 94°
2026-04-23 02:56 -13.53854 -71.90678 11700 ft 208 kts 95°
2026-04-23 02:56 -13.53988 -71.89261 11602 ft 215 kts 97°
2026-04-23 02:56 -13.54496 -71.87709 12235 ft 237 kts 118°
2026-04-23 02:56 -13.55351 -71.86186 12845 ft 251 kts 115°
2026-04-23 02:57 -13.56026 -71.84464 13337 ft 270 kts 108°
2026-04-23 02:57 -13.56673 -71.82557 13730 ft 295 kts 108°
2026-04-23 02:57 -13.57440 -71.80505 14104 ft 320 kts 110°
2026-04-23 02:57 -13.58300 -71.78296 14423 ft 345 kts 111°
2026-04-23 02:58 -13.59234 -71.75933 14758 ft 365 kts 113°
2026-04-23 02:58 -13.60464 -71.73669 15513 ft 371 kts 124°
2026-04-23 02:58 -13.62136 -71.71635 16358 ft 375 kts 133°
2026-04-23 02:58 -13.63954 -71.69692 17147 ft 380 kts 133°
2026-04-23 02:59 -13.65658 -71.67609 17945 ft 383 kts 121°
2026-04-23 02:59 -13.66734 -71.65096 18702 ft 388 kts 104°
2026-04-23 02:59 -13.67046 -71.62342 19361 ft 392 kts 87°
2026-04-23 02:59 -13.66567 -71.59575 20024 ft 396 kts 71°
2026-04-23 03:00 -13.65354 -71.57027 20750 ft 399 kts 57°
2026-04-23 03:00 -13.63775 -71.54659 21449 ft 404 kts 57°
2026-04-23 03:00 -13.62397 -71.52130 22122 ft 408 kts 62°
2026-04-23 03:00 -13.61126 -71.49547 22768 ft 412 kts 63°
2026-04-23 03:01 -13.59874 -71.46859 23139 ft 424 kts 64°
2026-04-23 03:01 -13.58701 -71.44241 23235 ft 440 kts 65°
2026-04-23 03:01 -13.57417 -71.41315 23238 ft 458 kts 65°
2026-04-23 03:01 -13.56093 -71.38274 23246 ft 474 kts 65°
2026-04-23 03:02 -13.54726 -71.35133 23241 ft 482 kts 65°
2026-04-23 03:02 -13.53364 -71.32004 23246 ft 481 kts 65°
2026-04-23 03:02 -13.52027 -71.28934 23249 ft 459 kts 65°
2026-04-23 03:02 -13.50750 -71.26008 23242 ft 437 kts 65°
2026-04-23 03:03 -13.49550 -71.23260 23238 ft 417 kts 65°
2026-04-23 03:03 -13.48383 -71.20591 23235 ft 409 kts 65°
2026-04-23 03:03 -13.47201 -71.17891 23227 ft 417 kts 65°
2026-04-23 03:03 -13.46012 -71.15176 23228 ft 416 kts 65°
2026-04-23 03:04 -13.44826 -71.12466 23218 ft 416 kts 65°
2026-04-23 03:04 -13.43639 -71.09757 23215 ft 416 kts 65°
2026-04-23 03:04 -13.42452 -71.07047 23210 ft 416 kts 65°
2026-04-23 03:04 -13.41266 -71.04342 23206 ft 415 kts 65°
2026-04-23 03:05 -13.40078 -71.01632 23191 ft 415 kts 65°
2026-04-23 03:05 -13.38893 -70.98931 23190 ft 415 kts 65°
2026-04-23 03:05 -13.37723 -70.96264 23183 ft 415 kts 65°
2026-04-23 03:05 -13.36536 -70.93559 23173 ft 415 kts 65°
2026-04-23 03:06 -13.35349 -70.90857 23158 ft 415 kts 65°
2026-04-23 03:06 -13.34163 -70.88155 23155 ft 415 kts 65°
2026-04-23 03:06 -13.32975 -70.85451 23147 ft 415 kts 65°
2026-04-23 03:06 -13.31789 -70.82752 23141 ft 415 kts 65°
2026-04-23 03:07 -13.30600 -70.80049 23126 ft 415 kts 65°
2026-04-23 03:07 -13.29414 -70.77351 23116 ft 415 kts 65°
2026-04-23 03:07 -13.28224 -70.74647 23112 ft 415 kts 65°
2026-04-23 03:07 -13.27052 -70.71983 23099 ft 415 kts 65°
2026-04-23 03:08 -13.25863 -70.69282 23093 ft 415 kts 65°
2026-04-23 03:08 -13.24673 -70.66581 23087 ft 415 kts 65°
2026-04-23 03:08 -13.23483 -70.63879 23080 ft 415 kts 65°
2026-04-23 03:08 -13.22293 -70.61178 23071 ft 415 kts 65°
2026-04-23 03:09 -13.21104 -70.58477 23060 ft 416 kts 65°
2026-04-23 03:09 -13.19915 -70.55775 23058 ft 416 kts 65°
2026-04-23 03:09 -13.18724 -70.53072 23053 ft 416 kts 65°
2026-04-23 03:09 -13.17533 -70.50369 23043 ft 416 kts 65°
2026-04-23 03:10 -13.16360 -70.47708 23045 ft 416 kts 65°
2026-04-23 03:10 -13.15169 -70.45006 23038 ft 416 kts 65°
2026-04-23 03:10 -13.13976 -70.42302 23034 ft 416 kts 65°
2026-04-23 03:10 -13.12785 -70.39603 23028 ft 415 kts 65°
2026-04-23 03:11 -13.11592 -70.36902 23023 ft 416 kts 65°
2026-04-23 03:11 -13.10399 -70.34199 23023 ft 415 kts 66°
2026-04-23 03:11 -13.09208 -70.31504 23019 ft 416 kts 66°
2026-04-23 03:11 -13.08015 -70.28803 23018 ft 416 kts 66°
2026-04-23 03:12 -13.06821 -70.26103 23016 ft 415 kts 66°
2026-04-23 03:12 -13.05645 -70.23442 23010 ft 415 kts 66°
2026-04-23 03:12 -13.04452 -70.20745 23010 ft 415 kts 66°
2026-04-23 03:12 -13.03258 -70.18047 23012 ft 415 kts 66°
2026-04-23 03:13 -13.02064 -70.15350 23007 ft 414 kts 66°
2026-04-23 03:13 -13.00896 -70.12712 23008 ft 397 kts 66°
2026-04-23 03:13 -12.99898 -70.10460 23011 ft 381 kts 66°
2026-04-23 03:13 -12.98828 -70.08044 23008 ft 363 kts 66°
2026-04-23 03:14 -12.97807 -70.05740 23005 ft 347 kts 66°
2026-04-23 03:14 -12.96845 -70.03570 23005 ft 331 kts 66°
2026-04-23 03:14 -12.95915 -70.01472 23002 ft 315 kts 66°
2026-04-23 03:14 -12.95030 -69.99475 23004 ft 300 kts 66°
2026-04-23 03:15 -12.94181 -69.97562 22997 ft 294 kts 66°
2026-04-23 03:15 -12.93326 -69.95631 23001 ft 300 kts 66°
2026-04-23 03:15 -12.92461 -69.93682 22999 ft 300 kts 66°
2026-04-23 03:15 -12.91600 -69.91741 23001 ft 299 kts 66°
2026-04-23 03:16 -12.91030 -69.90456 23002 ft 299 kts 66°
2026-04-23 03:16 -12.89892 -69.87894 22894 ft 297 kts 66°
2026-04-23 03:16 -12.88189 -69.84062 22252 ft 294 kts 66°
2026-04-23 03:17 -12.87346 -69.82166 21905 ft 291 kts 66°
2026-04-23 03:17 -12.86510 -69.80285 21561 ft 289 kts 66°
2026-04-23 03:17 -12.85681 -69.78421 21221 ft 286 kts 66°
2026-04-23 03:17 -12.85137 -69.77196 21002 ft 285 kts 66°
2026-04-23 03:18 -12.84318 -69.75356 20668 ft 283 kts 66°
2026-04-23 03:18 -12.83506 -69.73531 20344 ft 280 kts 66°
2026-04-23 03:18 -12.82441 -69.71138 19916 ft 277 kts 66°
2026-04-23 03:18 -12.81644 -69.69347 19590 ft 276 kts 66°
2026-04-23 03:19 -12.80852 -69.67569 19274 ft 273 kts 66°
2026-04-23 03:19 -12.80065 -69.65801 18957 ft 272 kts 66°
2026-04-23 03:19 -12.79546 -69.64636 18743 ft 271 kts 66°
2026-04-23 03:19 -12.78766 -69.62884 18436 ft 269 kts 66°
2026-04-23 03:20 -12.77991 -69.61145 18098 ft 268 kts 66°
2026-04-23 03:20 -12.77221 -69.59416 17738 ft 266 kts 66°
2026-04-23 03:20 -12.76454 -69.57695 17394 ft 264 kts 66°
2026-04-23 03:20 -12.75446 -69.55435 16934 ft 262 kts 66°
2026-04-23 03:21 -12.74935 -69.54288 16700 ft 261 kts 66°
2026-04-23 03:21 -12.74182 -69.52600 16365 ft 260 kts 66°
2026-04-23 03:21 -12.73432 -69.50920 16032 ft 259 kts 66°
2026-04-23 03:21 -12.72697 -69.49271 15703 ft 257 kts 66°
2026-04-23 03:22 -12.71954 -69.47608 15373 ft 256 kts 66°
2026-04-23 03:22 -12.71216 -69.45955 15058 ft 255 kts 66°
2026-04-23 03:22 -12.70481 -69.44308 14735 ft 254 kts 66°
2026-04-23 03:22 -12.69750 -69.42670 14425 ft 252 kts 66°
2026-04-23 03:23 -12.69021 -69.41039 14116 ft 251 kts 66°
2026-04-23 03:23 -12.68297 -69.39417 13809 ft 250 kts 66°
2026-04-23 03:23 -12.67574 -69.37799 13472 ft 249 kts 66°
2026-04-23 03:23 -12.66858 -69.36198 13126 ft 245 kts 66°
2026-04-23 03:24 -12.66159 -69.34633 12718 ft 245 kts 66°
2026-04-23 03:24 -12.65453 -69.33053 12352 ft 243 kts 66°
2026-04-23 03:24 -12.64752 -69.31487 11933 ft 241 kts 66°
2026-04-23 03:24 -12.64059 -69.29937 11518 ft 238 kts 66°
2026-04-23 03:25 -12.63371 -69.28398 11082 ft 237 kts 66°
2026-04-23 03:25 -12.62688 -69.26870 10654 ft 235 kts 66°
2026-04-23 03:25 -12.62015 -69.25351 10251 ft 233 kts 69°
2026-04-23 03:25 -12.61804 -69.23737 9798 ft 231 kts 100°
2026-04-23 03:26 -12.62431 -69.22272 9290 ft 231 kts 130°
2026-04-23 03:26 -12.63720 -69.21314 8802 ft 232 kts 154°
2026-04-23 03:26 -12.65174 -69.20639 8495 ft 224 kts 154°
2026-04-23 03:26 -12.66552 -69.19996 8302 ft 211 kts 154°
2026-04-23 03:27 -12.67835 -69.19391 8174 ft 195 kts 153°
2026-04-23 03:27 -12.69023 -69.18826 8008 ft 183 kts 153°
2026-04-23 03:27 -12.70132 -69.18295 7902 ft 167 kts 153°
2026-04-23 03:27 -12.71182 -69.17791 7578 ft 167 kts 153°
2026-04-23 03:28 -12.72219 -69.17291 7265 ft 166 kts 153°
2026-04-23 03:28 -12.73265 -69.16792 6936 ft 166 kts 156°
2026-04-23 03:28 -12.74410 -69.16748 6593 ft 171 kts 199°
2026-04-23 03:28 -12.75291 -69.17538 6259 ft 173 kts 243°
2026-04-23 03:29 -12.75424 -69.18743 5881 ft 175 kts 284°
2026-04-23 03:29 -12.74979 -69.19865 5595 ft 171 kts 299°
2026-04-23 03:29 -12.74397 -69.20933 5340 ft 168 kts 300°
2026-04-23 03:29 -12.73845 -69.21979 5068 ft 166 kts 298°
2026-04-23 03:30 -12.73343 -69.23041 4778 ft 165 kts 295°
2026-04-23 03:30 -12.72828 -69.24066 4466 ft 165 kts 312°
2026-04-23 03:30 -12.71849 -69.24595 4136 ft 160 kts
2026-04-23 03:30 -12.70826 -69.24283 3849 ft 154 kts 36°
2026-04-23 03:31 -12.69960 -69.23647 3553 ft 154 kts 37°
2026-04-23 03:31 -12.69032 -69.23157 3295 ft 152 kts 21°
2026-04-23 03:31 -12.67965 -69.23043 2913 ft 157 kts 359°
2026-04-23 03:31 -12.66885 -69.23148 2625 ft 154 kts 359°
2026-04-23 03:32 -12.65813 -69.23150 2205 ft 158 kts
2026-04-23 03:32 -12.64704 -69.23131 1765 ft 161 kts
2026-04-23 03:32 -12.63620 -69.23064 1374 ft 155 kts
2026-04-23 03:32 -12.62578 -69.22965 1204 ft 144 kts